TimeMST,TemperatureF,Dew PointF,Humidity,Sea Level PressureIn,VisibilityMPH,Wind Direction,Wind SpeedMPH,Gust SpeedMPH,PrecipitationIn,Events,Conditions,WindDirDegrees,DateUTC
12:56 AM,73.9,27.0,18,29.77,10.0,WSW,17.3,-,N/A,,Clear,240,2009-05-09 07:56:00
1:56 AM,71.1,28.0,20,29.77,10.0,Calm,Calm,-,N/A,,Clear,0,2009-05-09 08:56:00
2:56 AM,64.9,28.0,25,29.80,10.0,Calm,Calm,-,N/A,,Clear,0,2009-05-09 09:56:00
3:56 AM,66.9,24.1,20,29.80,10.0,North,-9999.0,-,N/A,,Clear,0,2009-05-09 10:56:00
4:56 AM,64.9,24.1,21,29.82,10.0,Calm,Calm,-,N/A,,Clear,0,2009-05-09 11:56:00
5:56 AM,62.1,28.0,28,29.84,10.0,West,3.5,-,N/A,,Clear,270,2009-05-09 12:56:00
6:56 AM,70.0,28.0,21,29.86,10.0,Calm,Calm,-,N/A,,Clear,0,2009-05-09 13:56:00
7:56 AM,77.0,28.0,17,29.85,10.0,Calm,Calm,-,N/A,,Clear,0,2009-05-09 14:56:00
8:56 AM,81.0,27.0,14,29.84,10.0,Calm,Calm,-,N/A,,Clear,0,2009-05-09 15:56:00
9:56 AM,84.9,25.0,11,29.84,10.0,ESE,10.4,19.6,N/A,,Clear,120,2009-05-09 16:56:00
10:56 AM,86.0,21.0,9,29.84,10.0,SE,5.8,17.3,N/A,,Clear,130,2009-05-09 17:56:00
11:56 AM,88.0,21.9,9,29.82,10.0,East,8.1,-,N/A,,Clear,80,2009-05-09 18:56:00
12:56 PM,89.1,21.0,8,29.80,10.0,Variable,5.8,17.3,N/A,,Clear,0,2009-05-09 19:56:00
1:56 PM,91.0,19.9,7,29.78,10.0,South,10.4,-,N/A,,Clear,190,2009-05-09 20:56:00
2:56 PM,93.0,18.0,6,29.77,10.0,WNW,12.7,23.0,N/A,,Clear,290,2009-05-09 21:56:00
3:56 PM,93.0,21.0,7,29.75,10.0,West,9.2,-,N/A,,Clear,280,2009-05-09 22:56:00
4:56 PM,91.0,19.9,7,29.76,10.0,West,11.5,18.4,N/A,,Clear,270,2009-05-09 23:56:00
5:56 PM,88.0,16.0,7,29.78,10.0,West,18.4,23.0,N/A,,Clear,260,2009-05-10 00:56:00
6:56 PM,84.0,14.0,7,29.78,10.0,West,15.0,-,N/A,,Clear,260,2009-05-10 01:56:00
7:56 PM,80.1,15.1,9,29.79,10.0,WSW,11.5,-,N/A,,Clear,250,2009-05-10 02:56:00
8:56 PM,79.0,17.1,10,29.80,10.0,WSW,11.5,-,N/A,,Clear,250,2009-05-10 03:56:00
9:56 PM,78.1,19.0,11,29.80,10.0,WSW,12.7,-,N/A,,Clear,250,2009-05-10 04:56:00
10:56 PM,77.0,19.9,12,29.81,10.0,West,13.8,-,N/A,,Clear,260,2009-05-10 05:56:00
11:56 PM,73.0,21.0,14,29.81,10.0,WSW,11.5,-,N/A,,Clear,250,2009-05-10 06:56:00